Regional Weather Roundup
Issued by NWS

Home | Current Version | Previous Version | Text Only | Print | Product List | Glossary On
Versions: 1 2 3 4 5 6 7 8 9 10 11 12 13 14 15 16 17 18 19 20 21 22 23 24 25 26 27 28 29 30 31 32 33 34 35 36 37 38 39 40 41 42 43 44 45 46 47 48 49 50
000
ASCA42 TJSJ 300410
RWRPR
PUERTO RICO/U.S. VIRGIN ISLANDS HOURLY WEATHER ROUNDUP
NATIONAL WEATHER SERVICE SAN JUAN PR
1200 AM AST SAT APR 30 2016

PRZ001-004-300500-
PUERTO RICO

CITY           SKY/WX    TMP DP  RH WIND       PRES   REMARKS
SAN JUAN LMM   PTCLDY    79  73  83 CALM      29.93F
PONCE          PTCLDY    77  73  88 NE6       29.90F
AGUADILLA      CLEAR     75  72  88 CALM      29.94F
CEIBA          CLEAR     75  75 100 SW5       29.95F
$$

PRZ006-007-300500-
U.S. VIRGIN ISLANDS

CITY           SKY/WX    TMP DP  RH WIND       PRES   REMARKS
CHARLOTTE AMA  CLEAR     82  75  78 SE9       29.93F
CHRISTIANSTED  PTCLDY    82  75  78 SE9       29.95S
$$

HOURLY WEATHER ROUNDUP FOR THE NEWS MEDIA

CITY           SKY/WX    TMP DP  RH WIND       PRES   REMARKS
ORLANDO        MOCLDY    78  68  71 CALM      29.98S
NEW YORK       CLOUDY    47  38  71 E5        30.16F
NEWARK         CLOUDY    48  40  73 NE6       30.14F
CHICAGO        CLOUDY    43  37  79 E9        30.12F
HARTFORD       CLOUDY    44  35  70 CALM      30.15S
BOSTON         MOCLDY    45  29  53 S8        30.17R
DALLAS         MOCLDY    72  66  81 CALM      29.61R
PHILADELPHIA   CLOUDY    49  39  68 NE8       30.15R
LOS ANGELES    PTCLDY    57  51  80 SW3       29.92S
WASHINGTON DC  CLOUDY    52  49  89 E3        30.12R


USA.gov is the U.S. government's official web portal to all federal, state and local government web resources and services.